Location: Musselshell
(46.5176°N, 108.0911°W)
Time: 13:12:16
(UTC+00:00)

AO-91 - Pass Details

Date: 04 July 2022
Orbit: 450 x 798 km, 97.7° (Epoch: 07 August)

Event Time Altitude Azimuth Distance (km) Brightness Sun altitude
Rises 05:04:46 0° 30° (NNE) 2,490 ? -14.5°
Reaches altitude 10° 05:07:29 10° 54° (NE) 1,592 ? -14.7°
Maximum altitude 05:09:33 15° 92° (E) 1,294 ? -14.9°
Enters shadow 05:09:39 15° 95° (E) 1,295 ? -14.9°
